User: anonymous   Login
Location: Tyler Bend Campground
(35.9875°N, 92.7606°W)
Time: 04:17:10
(UTC-06:00)
Language:

Iridium 39 - Orbit

View from above orbital plane
View from above orbital plane
View from above satellite
View from above satellite

Ground track
Ground track

The orbit data is extracted from the following two-line orbital elements,

1 25042U 97069D   16338.47403211  .00000155  00000-0  37862-4 0  9998
2 25042  86.3925 102.7251 0017186 240.2957 119.6535 14.46111520998436
Epoch (UTC): 03 December 2016 11:22:36
Eccentricity: 0.0017186
inclination: 86.3925°
perigee height: 726 km
apogee height: 750 km
right ascension of ascending node: 102.7251°
argument of perigee: 240.2957°
revolutions per day: 14.46111520
mean anomaly at epoch: 119.6535°
orbit number at epoch: 99843

The dashed part of the orbit path shows where the satellite is in the earth's shadow,  

DLR